Temp
62 62 62 62 62 62 62 62 62 63 63 63 64 63 63 64 64 62 58 65 66 69 68 68 67 66 66 63 65 63 53 48 52 58 60 66 64 64 65 66 62 63 62 65 69
62 61 61 61 62 62 62 62 62 62 62 63 63 63 63 63 60 59 67 69 68 69 65 63 59 64 61 61 62 56 51 53 60 61 62 63 64 65 63 61 58 59 64 70 68
61 61 61 61 61 61 61 61 61 61 62 62 63 63 63 62 56 58 68 68 68 68 65 63 62 61 58 60 60 57 53 58 62 66 63 63 62 64 63 57 61 59 63 66 66
61 61 61 61 61 61 61 61 61 61 61 62 62 62 62 59 47 60 67 68 68 67 64 60 59 56 54 55 62 52 62 61 63 65 63 62 65 62 62 64 67 66 67 66 66
60 60 60 60 60 60 61 61 61 61 61 61 62 62 59 53 54 64 66 66 65 63 61 58 55 54 52 55 59 55 59 64 63 65 63 64 61 63 62 63 67 67 67 65 65
60 60 59 59 59 60 61 61 61 60 61 61 62 62 54 47 61 65 64 63 62 61 59 59 56 57 54 55 56 56 57 59 64 64 63 62 60 62 60 63 64 65 62 63 63
60 59 59 59 59 60 60 60 60 60 60 61 61 60 52 51 62 64 64 62 63 62 57 60 60 57 55 53 56 57 54 60 61 60 62 62 56 58 62 63 62 62 61 62 63
59 59 59 59 59 59 59 59 59 59 60 61 61 57 49 60 61 61 62 61 63 64 62 62 62 56 54 54 55 55 55 48 57 58 60 60 52 59 62 62 58 58 58 61 63
58 58 58 58 58 58 59 58 58 59 60 61 52 51 47 60 56 60 62 58 59 61 62 63 59 54 53 49 46 48 43 47 53 59 56 58 52 58 61 62 58 57 58 61 61
58 58 58 58 58 58 58 58 57 57 56 56 54 45 51 49 56 58 60 61 57 56 55 54 52 49 48 45 39 41 43 50 50 53 55 52 52 54 59 60 58 58 58 59 60
58 58 58 58 58 58 54 47 43 41 44 42 43 45 50 54 58 55 58 57 56 53 46 50 45 42 46 48 49 49 45 46 48 54 52 51 52 54 59 57 56 56 57 59 61
58 57 57 58 58 58 49 42 44 46 37 46 47 48 53 54 46 52 58 51 50 46 48 45 42 49 52 50 48 46 44 43 48 53 51 51 51 53 57 56 60 59 59 61 59
57 57 57 57 58 50 44 46 50 48 36 42 45 46 49 50 46 48 54 52 49 46 46 43 47 52 50 47 44 45 44 43 44 48 51 49 48 50 57 57 59 63 62 60 58
57 57 57 57 50 45 43 50 50 48 26 30 39 44 48 49 44 55 57 53 48 45 47 46 51 48 48 46 47 42 49 47 45 43 38 47 36 48 52 54 56 60 60 58 55
56 57 57 57 46 43 49 50 48 42 6 36 40 50 49 45 46 46 55 51 45 46 45 43 46 44 44 47 51 44 49 46 44 42 40 40 38 44 51 49 54 57 56 55 55
56 56 56 50 45 47 50 48 43 20 9 31 41 39 41 42 46 48 48 51 51 47 47 45 50 50 48 51 51 49 45 43 43 40 32 37 37 38 46 50 52 53 53 53 52
56 56 52 51 42 48 47 40 20 9 30 27 34 39 38 36 40 45 43 41 41 35 36 42 42 46 50 45 48 47 42 30 29 30 29 38 38 42 48 52 54 53 53 53 52
55 53 50 48 46 47 43 34 18 16 22 35 35 35 34 35 35 42 41 39 42 41 36 34 31 42 49 46 42 44 42 33 27 26 30 37 32 42 48 53 51 52 52 50 50
53 46 42 45 48 44 35 22 16 23 32 31 33 31 32 34 33 40 40 39 40 43 36 34 34 45 47 49 50 42 38 44 33 28 31 35 39 46 48 47 48 49 51 49 49
42 39 40 46 45 38 26 28 24 34 34 33 27 32 31 32 32 36 39 43 40 45 46 40 32 42 45 49 48 45 47 36 33 25 24 29 34 37 42 45 47 48 49 48 49
39 31 42 46 42 29 16 19 29 35 35 32 31 32 33 33 35 33 37 40 44 43 45 42 38 36 44 40 39 41 39 39 39 33 28 26 32 42 43 47 48 48 49 49 48
35 24 42 43 25 25 18 30 34 34 39 36 34 33 32 32 32 34 35 38 42 46 40 43 38 32 35 41 42 44 41 41 31 29 28 31 33 46 44 45 48 48 48 47 49
32 30 42 39 15 11 29 30 33 32 35 35 35 35 33 32 30 34 38 42 42 42 40 42 35 28 31 38 41 38 41 41 38 33 27 27 31 46 45 46 46 46 47 48 48
30 21 26 29 31 28 28 30 28 35 35 38 38 39 34 32 33 32 35 40 42 41 44 44 34 32 29 32 38 36 38 40 38 27 29 31 35 39 41 44 46 47 48 48 49
29 26 25 17 21 26 30 30 29 27 34 38 35 35 34 30 31 31 35 38 41 42 39 38 25 29 32 34 36 39 38 38 36 36 32 36 36 41 44 46 46 48 48 48 49
26 24 29 15 26 27 29 26 30 31 31 32 31 35 34 31 31 29 35 36 36 39 37 38 27 31 26 33 34 31 37 37 38 37 37 37 37 46 48 45 45 48 47 47 48
33 34 28 29 23 20 24 28 29 32 34 35 34 34 32 31 34 35 37 37 38 37 35 34 29 21 16 27 32 25 32 35 36 38 38 34 41 44 43 45 45 46 47 47 46
MSLP
1018.86 1018.82 1018.74 1018.59 1018.56 1018.51 1018.48 1018.44 1018.28 1018.11 1017.81 1017.54 1017.32 1017.28 1017.03 1016.64 1016.61 1016.74 1016.33 1015.74 1016.11 1016.20 1016.41 1016.14 1016.29 1016.45 1016.07 1016.09 1015.77 1015.25 1015.59 1015.39 1014.65 1013.68 1013.01 1012.45 1012.71 1012.93 1012.97 1013.57 1014.26 1014.69 1015.10 1015.24 1016.37
1018.60 1018.67 1018.66 1018.56 1018.45 1018.39 1018.34 1018.28 1018.24 1018.12 1018.00 1017.75 1017.27 1017.09 1016.93 1016.60 1016.46 1016.08 1015.38 1015.53 1015.96 1016.11 1016.56 1016.37 1016.53 1016.53 1016.62 1016.56 1015.87 1015.61 1015.67 1014.87 1013.95 1013.28 1012.98 1012.70 1012.56 1012.70 1013.15 1013.89 1014.74 1015.01 1015.15 1015.61 1016.54
1018.16 1018.33 1018.41 1018.41 1018.38 1018.34 1018.21 1018.12 1018.00 1017.96 1017.93 1017.76 1017.42 1016.97 1016.87 1016.63 1016.55 1015.17 1014.54 1015.44 1015.77 1015.73 1016.12 1016.23 1016.74 1016.76 1017.10 1016.76 1016.12 1015.59 1015.39 1014.55 1013.72 1013.13 1012.70 1012.85 1012.85 1012.75 1013.17 1014.04 1014.22 1014.82 1015.57 1016.10 1016.78
1017.68 1017.90 1018.07 1018.16 1018.21 1018.19 1018.15 1018.03 1017.95 1017.87 1017.77 1017.73 1017.37 1016.98 1016.86 1016.90 1016.32 1014.95 1014.63 1015.20 1015.33 1015.22 1015.40 1016.85 1017.41 1016.95 1017.00 1016.84 1016.30 1016.21 1015.08 1014.53 1013.82 1013.08 1012.94 1012.70 1012.71 1013.00 1013.07 1013.19 1013.28 1014.38 1015.10 1015.98 1016.63
1017.27 1017.50 1017.77 1017.94 1018.02 1018.02 1018.00 1017.98 1017.91 1017.88 1017.81 1017.63 1017.33 1017.09 1017.11 1016.77 1015.76 1015.21 1015.06 1015.31 1015.53 1015.55 1016.09 1016.73 1016.83 1016.69 1016.86 1016.73 1016.86 1016.20 1015.39 1014.48 1013.76 1013.19 1012.92 1012.65 1012.75 1012.98 1013.20 1013.35 1013.90 1015.04 1015.72 1016.22 1016.68
1016.85 1017.12 1017.40 1017.62 1017.78 1017.80 1017.83 1017.92 1017.85 1017.81 1017.73 1017.58 1017.25 1017.00 1017.07 1016.45 1015.30 1015.11 1015.33 1015.71 1015.73 1015.81 1016.00 1016.25 1016.75 1016.70 1016.74 1016.90 1017.11 1016.57 1015.99 1014.71 1013.73 1013.45 1012.98 1012.90 1013.07 1013.30 1013.63 1013.85 1014.59 1015.38 1015.96 1016.39 1016.84
1016.38 1016.75 1017.07 1017.36 1017.56 1017.65 1017.80 1017.89 1017.81 1017.65 1017.58 1017.36 1016.97 1016.87 1016.75 1015.85 1015.43 1015.36 1015.42 1015.72 1015.82 1015.73 1015.97 1016.27 1016.65 1016.63 1016.97 1017.30 1017.45 1016.76 1016.13 1014.62 1013.98 1013.65 1013.18 1013.17 1013.64 1013.72 1013.71 1014.30 1015.05 1015.84 1016.32 1016.61 1016.90
1015.92 1016.31 1016.69 1017.12 1017.40 1017.63 1017.84 1017.87 1017.80 1017.67 1017.56 1017.27 1016.89 1016.86 1016.36 1015.63 1015.29 1015.67 1015.56 1015.82 1016.01 1015.83 1015.81 1016.38 1016.36 1016.37 1016.60 1017.69 1017.55 1017.11 1016.57 1015.28 1014.38 1013.89 1013.46 1013.44 1013.91 1013.90 1014.12 1014.59 1015.62 1016.19 1016.60 1016.76 1016.82
1015.36 1015.90 1016.35 1016.81 1017.20 1017.50 1017.70 1017.81 1017.69 1017.58 1017.37 1017.21 1017.11 1017.00 1016.39 1015.90 1015.83 1015.50 1015.68 1015.56 1016.04 1016.11 1016.18 1016.38 1016.62 1017.06 1017.82 1017.60 1017.84 1017.28 1016.43 1015.64 1015.06 1014.41 1014.23 1013.91 1014.24 1014.17 1014.33 1014.82 1015.76 1016.30 1016.59 1016.74 1016.98
1014.78 1015.42 1016.07 1016.55 1016.97 1017.27 1017.48 1017.57 1017.53 1017.53 1017.38 1017.27 1017.27 1017.38 1016.65 1016.12 1015.80 1015.46 1015.61 1015.63 1015.98 1016.39 1016.85 1016.80 1017.06 1017.12 1017.36 1017.41 1016.51 1016.84 1016.60 1016.08 1015.67 1015.23 1014.83 1014.81 1014.51 1014.36 1014.48 1015.00 1015.64 1016.02 1016.41 1016.70 1016.90
1014.24 1014.88 1015.73 1016.42 1016.79 1017.09 1017.45 1017.72 1018.12 1018.16 1017.80 1017.08 1016.89 1016.70 1016.48 1016.12 1015.50 1015.34 1015.14 1015.33 1015.93 1016.30 1016.04 1016.37 1016.88 1016.51 1016.62 1016.99 1016.64 1016.61 1016.87 1016.50 1016.52 1016.05 1016.18 1015.71 1015.00 1014.61 1014.71 1015.02 1015.68 1016.15 1016.41 1016.69 1016.93
1013.89 1014.49 1015.43 1016.21 1016.64 1016.98 1017.57 1017.77 1017.70 1017.93 1017.76 1016.95 1016.91 1016.83 1016.50 1016.58 1016.22 1015.06 1014.90 1014.71 1015.25 1015.45 1015.87 1016.56 1016.25 1015.94 1016.13 1016.69 1017.00 1017.11 1017.12 1017.33 1017.43 1017.14 1016.80 1016.45 1015.66 1015.20 1015.03 1015.05 1015.33 1015.72 1016.26 1016.66 1017.40
1013.73 1014.49 1015.47 1016.12 1016.62 1017.33 1017.69 1017.51 1017.43 1017.80 1018.05 1016.83 1016.51 1016.31 1016.41 1016.93 1016.25 1014.82 1015.02 1014.75 1014.65 1015.06 1015.15 1015.37 1015.62 1015.68 1016.19 1016.77 1017.09 1017.26 1017.31 1017.68 1017.92 1017.85 1017.67 1017.30 1016.96 1015.97 1015.06 1015.27 1015.43 1015.81 1016.39 1016.93 1017.60
1013.73 1014.66 1015.49 1016.16 1017.19 1017.49 1017.57 1017.16 1017.50 1017.83 1018.34 1017.05 1016.32 1015.42 1015.87 1016.54 1015.62 1014.43 1014.36 1014.44 1014.36 1014.57 1015.32 1015.90 1015.65 1015.84 1016.03 1016.49 1016.79 1017.07 1017.32 1018.01 1018.46 1018.63 1018.44 1018.18 1017.41 1015.99 1015.64 1015.75 1015.87 1016.12 1017.00 1017.75 1018.45
1013.95 1014.80 1015.52 1016.02 1016.82 1017.42 1017.19 1017.31 1017.84 1018.26 1018.66 1016.71 1015.76 1014.78 1014.71 1015.63 1014.89 1014.06 1013.93 1014.66 1014.61 1014.49 1014.95 1015.53 1015.45 1015.71 1015.82 1015.88 1016.66 1017.51 1017.53 1018.49 1019.00 1019.19 1019.34 1019.01 1018.42 1017.24 1016.39 1016.34 1016.17 1016.68 1017.23 1018.56 1019.01
1014.39 1015.17 1015.84 1016.47 1017.08 1017.36 1017.34 1017.82 1018.47 1019.85 1018.60 1016.82 1015.87 1015.25 1015.11 1015.54 1014.59 1014.27 1014.39 1014.53 1014.61 1014.70 1015.34 1015.35 1015.49 1015.80 1015.46 1015.84 1016.29 1017.77 1018.49 1019.04 1019.47 1019.88 1019.99 1019.45 1019.01 1017.61 1016.64 1016.17 1016.89 1017.28 1018.39 1018.64 1019.36
1015.01 1015.72 1016.25 1016.70 1017.67 1017.59 1017.85 1018.74 1019.98 1020.06 1018.30 1017.35 1016.34 1015.23 1015.07 1015.38 1014.61 1013.67 1014.03 1014.26 1014.04 1014.42 1015.17 1015.63 1015.68 1015.86 1015.54 1016.13 1016.90 1017.35 1018.04 1019.15 1020.10 1020.39 1020.10 1019.63 1019.45 1017.74 1016.41 1016.09 1016.74 1017.86 1018.91 1019.25 1019.71
1015.67 1016.09 1017.08 1017.48 1017.69 1017.65 1018.30 1019.53 1020.36 1019.35 1018.58 1017.55 1016.53 1015.59 1014.97 1014.71 1014.54 1013.51 1013.82 1013.97 1014.50 1014.57 1015.17 1015.47 1016.42 1015.85 1015.32 1015.39 1016.08 1016.94 1017.14 1017.90 1019.00 1020.35 1020.25 1019.80 1018.97 1017.25 1016.67 1016.67 1016.95 1017.93 1018.66 1019.44 1020.49
1016.09 1017.15 1017.82 1017.99 1017.88 1018.04 1019.16 1020.12 1019.93 1019.31 1018.64 1017.68 1016.62 1015.98 1015.05 1014.82 1014.70 1013.34 1013.43 1013.75 1014.15 1014.33 1014.69 1015.57 1015.93 1015.76 1015.43 1015.42 1016.01 1016.81 1017.05 1017.33 1018.78 1020.66 1020.24 1019.69 1018.55 1017.42 1017.35 1017.52 1017.92 1018.17 1018.94 1020.01 1020.68
1017.13 1017.82 1018.20 1018.05 1018.09 1018.87 1020.01 1020.18 1019.80 1018.95 1018.33 1017.33 1016.89 1015.40 1014.51 1014.27 1014.45 1013.54 1013.49 1013.58 1014.09 1013.99 1014.01 1014.93 1015.88 1016.19 1015.90 1015.55 1016.03 1015.82 1016.57 1017.59 1018.87 1020.40 1020.62 1020.17 1019.13 1017.99 1018.16 1018.34 1018.81 1019.27 1019.56 1020.10 1020.73
1017.65 1018.35 1018.05 1017.95 1018.25 1019.71 1020.77 1020.34 1019.48 1018.45 1017.90 1017.19 1016.37 1015.13 1014.14 1013.34 1013.46 1013.56 1013.47 1013.74 1013.58 1013.92 1014.37 1015.02 1015.49 1016.97 1016.38 1016.40 1016.43 1016.51 1016.77 1017.59 1018.62 1019.57 1019.89 1020.41 1019.24 1018.24 1018.12 1018.37 1018.50 1019.09 1019.56 1019.97 1020.65
1018.17 1018.86 1018.14 1017.78 1019.42 1020.48 1020.85 1020.32 1019.49 1018.08 1017.11 1016.71 1016.01 1015.29 1014.17 1013.58 1013.63 1013.78 1013.37 1013.52 1013.48 1013.86 1015.05 1015.11 1015.68 1016.91 1017.45 1017.36 1016.81 1016.42 1016.82 1017.78 1018.74 1020.05 1020.23 1019.74 1019.42 1018.38 1018.01 1018.31 1018.52 1019.10 1019.51 1020.13 1020.50
1019.19 1019.33 1018.38 1018.33 1019.96 1021.14 1020.60 1019.92 1019.09 1018.04 1016.80 1015.98 1015.19 1014.73 1014.33 1013.98 1014.03 1013.76 1013.57 1014.02 1013.85 1013.90 1014.33 1014.74 1016.47 1017.38 1017.99 1017.69 1017.30 1017.30 1017.45 1017.82 1018.61 1019.51 1020.20 1020.04 1019.77 1018.81 1018.22 1018.17 1018.79 1019.24 1019.75 1020.31 1020.83
1019.70 1020.28 1019.93 1020.00 1020.41 1020.41 1020.09 1019.22 1018.39 1017.49 1016.94 1016.12 1015.07 1014.57 1014.63 1014.40 1014.21 1014.36 1014.43 1014.58 1014.35 1014.29 1014.51 1014.81 1016.91 1017.32 1017.42 1017.29 1017.33 1017.98 1017.90 1018.26 1018.70 1019.87 1020.23 1019.96 1019.76 1019.43 1019.02 1019.02 1019.39 1019.80 1019.99 1020.49 1020.81
1019.99 1021.09 1021.51 1021.49 1021.24 1020.70 1019.73 1019.41 1018.42 1017.90 1017.33 1016.78 1016.09 1015.98 1015.29 1015.17 1015.17 1015.18 1014.80 1014.92 1015.21 1015.13 1015.25 1015.85 1018.09 1018.47 1018.78 1018.41 1017.90 1017.93 1018.13 1018.42 1018.84 1019.24 1019.62 1019.65 1019.47 1019.17 1019.03 1019.08 1019.42 1019.73 1020.06 1020.49 1020.84
1019.97 1020.94 1021.38 1021.40 1021.35 1020.97 1020.44 1020.05 1019.20 1018.48 1018.07 1017.42 1017.12 1016.62 1016.10 1015.84 1016.05 1015.85 1015.08 1015.63 1015.80 1016.04 1016.33 1017.22 1019.23 1019.49 1020.72 1020.13 1019.28 1019.15 1018.67 1018.79 1018.97 1019.42 1019.55 1019.50 1019.54 1018.90 1018.82 1019.31 1019.63 1019.97 1020.35 1020.77 1021.16
1019.63 1019.95 1020.37 1021.40 1021.31 1021.18 1020.77 1020.23 1019.61 1019.11 1018.35 1017.91 1017.70 1017.14 1017.03 1017.60 1017.23 1016.79 1016.41 1016.60 1016.74 1016.88 1017.53 1018.28 1019.80 1021.12 1022.83 1022.05 1020.86 1020.67 1019.21 1018.86 1019.09 1019.14 1019.33 1019.61 1019.04 1018.83 1019.11 1019.45 1019.77 1020.08 1020.35 1020.79 1021.31
Wind_Speed
7 6 6 6 6 6 7 7 8 10 10 11 9 6 9 12 9 5 7 4 6 8 4 1 4 5 3 3 3 0 2 3 3 4 5 3 5 1 2 7 3 1 7 8 12
8 7 6 7 5 6 7 7 8 10 11 11 12 7 8 9 4 9 3 10 10 10 4 5 3 3 3 4 4 3 3 6 4 2 1 3 4 7 5 4 4 4 6 16 15
10 8 6 5 5 5 7 7 8 9 11 11 12 9 7 4 2 6 14 13 11 9 6 5 3 4 3 2 3 2 5 3 4 6 1 3 3 2 10 2 6 12 16 15 13
12 9 7 5 5 6 6 7 7 8 10 11 12 9 5 0 8 3 14 12 10 10 8 6 3 6 5 4 1 1 7 6 4 3 3 6 5 4 2 6 11 17 20 14 14
13 10 8 5 5 7 5 7 7 7 10 10 12 8 1 5 4 2 12 10 5 5 11 7 3 4 6 3 2 2 5 8 3 6 4 1 2 6 4 3 15 12 13 13 12
13 11 9 7 5 6 6 6 7 7 9 10 11 6 1 5 2 3 10 5 5 4 4 6 7 4 5 3 3 1 5 10 4 5 1 5 2 2 2 9 15 16 10 10 10
13 12 10 8 5 6 5 7 7 8 9 11 10 2 3 7 1 6 10 5 3 3 5 2 7 3 7 5 2 4 5 6 4 2 4 2 1 5 6 9 15 11 9 8 9
15 13 12 9 7 6 4 6 7 8 8 10 10 2 5 2 1 5 7 3 3 2 5 6 3 6 5 1 3 3 4 3 1 1 2 3 8 3 7 14 10 9 8 9 9
15 13 12 10 7 6 4 4 6 8 8 8 2 2 4 4 3 4 4 6 5 3 5 6 2 4 4 6 4 3 6 5 3 5 3 3 4 3 6 9 11 9 9 10 8
16 15 14 11 8 6 4 4 6 4 4 1 2 1 3 3 3 5 4 8 5 9 7 4 3 4 4 6 15 7 8 11 6 4 4 1 3 2 6 8 10 10 9 8 8
15 18 15 13 10 7 1 3 4 2 1 7 5 4 0 6 3 7 8 12 6 4 5 4 4 7 9 6 2 7 3 5 3 2 3 4 4 3 4 6 6 7 7 7 7
14 16 16 14 11 8 4 3 2 2 4 8 6 3 1 4 5 6 10 8 9 12 6 5 7 8 9 8 6 5 7 3 1 5 2 2 2 1 3 4 5 8 8 8 7
16 16 16 14 12 5 3 4 3 4 1 6 5 6 5 4 7 10 13 7 8 9 13 7 5 7 10 10 11 10 13 5 4 3 1 2 1 3 2 3 4 6 6 6 8
17 17 17 16 6 4 2 3 4 3 4 7 5 7 7 5 8 7 19 9 5 15 14 7 5 11 12 10 3 5 10 6 7 3 4 2 5 2 3 6 4 5 6 6 7
19 20 20 10 6 4 4 4 3 6 4 5 4 2 9 8 2 8 6 4 11 8 6 6 17 16 15 12 12 4 12 8 3 4 3 3 2 3 3 3 6 5 8 5 6
22 20 14 4 4 1 5 4 5 8 9 3 2 8 8 13 4 5 7 2 3 8 6 4 1 8 5 8 5 15 12 6 4 3 2 5 3 4 5 5 3 4 4 8 7
21 13 5 2 3 2 4 5 6 5 4 3 3 4 9 8 8 14 17 9 7 7 6 5 4 0 4 13 16 9 12 3 3 1 3 2 6 6 3 6 7 11 9 9 9
17 13 7 4 3 4 3 3 3 5 5 2 3 2 6 8 8 14 20 12 5 3 4 5 5 7 6 7 8 14 4 5 5 5 3 4 6 5 3 4 9 10 10 9 9
10 3 3 4 4 4 5 2 8 5 3 4 3 5 6 6 2 13 17 13 7 6 6 5 3 3 3 4 14 5 3 5 8 3 3 3 4 3 4 8 8 12 12 10 8
3 3 1 4 3 5 5 4 4 3 3 2 2 7 7 10 4 4 18 8 8 5 2 5 6 2 1 5 2 7 7 6 3 5 2 3 3 4 3 7 7 8 12 8 7
4 4 3 4 4 6 4 6 4 6 6 4 4 5 5 5 11 6 14 2 6 8 2 6 4 2 2 1 6 4 3 4 5 3 5 4 5 4 3 6 10 9 9 10 8
3 3 4 3 5 2 3 3 4 5 5 3 4 5 4 3 5 5 8 3 2 14 13 4 5 5 3 4 1 2 6 4 5 4 0 3 3 4 2 6 7 7 8 8 7
3 2 2 4 2 2 3 4 4 3 3 3 3 3 3 2 4 4 7 2 3 5 9 6 3 5 4 5 3 3 3 5 5 3 3 5 4 4 6 8 6 8 7 7 6
4 2 5 4 2 3 1 3 3 3 3 6 5 4 2 6 6 4 5 3 2 4 9 7 5 4 6 4 8 5 5 4 5 4 4 2 4 1 3 7 6 6 7 8 8
3 0 3 2 4 3 0 4 5 6 2 6 4 8 2 4 2 2 4 7 6 5 5 6 5 4 6 3 4 9 9 7 4 5 5 5 7 6 7 6 4 5 4 6 7
5 4 1 2 2 2 3 2 3 4 3 4 6 9 13 6 6 1 7 4 3 5 4 4 4 4 7 7 5 4 5 7 5 5 5 4 3 6 4 2 2 5 6 8 6
0 2 5 5 3 4 2 0 2 1 2 4 1 5 13 10 7 9 13 11 6 4 4 4 7 4 2 4 5 4 6 6 4 3 8 6 8 3 1 4 4 4 3 6 7
Wind_Direction
266 288 292 270 283 284 291 302 320 335 343 340 332 323 327 313 166 178 223 203 169 171 175 94 31 352 343 315 235 86 21 244 254 192 242 165 142 184 48 113 78 56 154 169 135
263 261 281 287 274 277 291 300 311 324 336 338 333 323 323 303 220 224 175 142 158 173 155 131 101 76 347 303 307 128 176 229 218 299 286 308 152 153 104 112 46 50 74 136 130
258 259 258 280 274 277 291 302 307 322 328 334 333 316 337 282 280 249 169 168 166 138 120 107 132 114 156 221 252 241 224 235 284 267 161 231 152 128 124 206 193 155 142 150 147
251 249 254 265 273 270 287 305 308 317 325 330 330 321 338 230 222 310 163 162 152 124 71 124 198 131 145 194 130 348 259 247 252 295 327 167 154 101 170 212 150 156 152 154 161
249 248 236 236 261 267 264 300 313 315 323 330 332 317 291 240 248 303 139 131 114 131 148 157 139 137 165 147 252 203 308 286 263 292 288 140 204 182 232 79 125 135 153 159 161
235 237 222 228 253 258 261 298 308 311 321 332 332 314 254 258 56 176 139 149 156 132 134 151 165 185 103 131 198 10 276 271 278 263 260 144 213 220 96 126 132 151 163 162 165
225 225 216 214 229 238 253 293 308 307 318 329 325 234 237 242 252 177 156 173 188 152 136 148 148 164 138 133 351 305 337 300 247 253 218 103 96 216 136 135 145 160 165 162 177
219 214 206 204 210 208 228 272 286 302 303 317 322 131 258 6 76 194 167 141 199 55 98 126 86 68 64 69 137 184 313 228 164 151 277 121 212 227 153 139 158 163 172 177 191
213 203 200 194 197 192 215 255 280 288 292 303 3 96 259 119 181 188 197 176 145 60 82 110 34 110 127 150 94 209 202 208 179 66 315 157 184 202 162 155 165 179 183 187 198
212 193 194 189 184 180 203 248 281 322 320 63 63 112 216 223 211 198 181 169 158 145 134 143 192 148 137 189 196 174 187 208 207 16 357 241 178 148 158 158 182 183 192 188 188
208 193 180 178 172 167 136 49 38 352 273 198 203 189 265 310 150 201 179 172 143 178 185 149 165 183 183 181 82 132 110 145 12 347 297 256 171 186 140 120 166 189 183 183 193
193 186 173 170 161 157 95 124 208 159 303 239 236 275 331 57 301 220 167 205 165 184 142 130 201 193 166 162 166 162 143 143 337 353 98 284 144 296 167 151 161 155 157 156 111
175 172 164 156 139 85 130 205 154 133 265 275 188 202 171 82 252 212 186 200 191 187 162 170 187 150 155 175 180 188 167 140 127 343 57 223 277 200 189 135 140 123 116 96 130
160 152 145 135 95 143 220 190 200 119 42 268 214 225 155 135 259 200 191 178 184 198 151 190 161 173 160 151 161 150 173 132 113 160 166 313 197 305 214 203 181 193 100 96 83
146 139 141 137 137 138 222 128 104 57 31 238 183 281 146 176 197 218 180 98 232 184 142 174 177 180 179 169 148 143 120 145 129 96 88 349 93 247 260 212 223 169 108 100 113
132 140 132 83 54 357 108 85 54 47 255 303 275 174 142 195 245 125 180 31 98 163 188 136 209 179 151 135 131 138 105 85 76 122 187 178 127 269 216 181 142 80 101 111 88
133 102 73 72 126 114 105 55 51 138 321 272 255 227 177 163 240 175 179 173 164 141 148 135 129 179 170 113 138 147 138 87 82 146 194 179 178 241 222 206 169 153 156 139 107
92 83 61 73 15 121 73 92 207 230 252 359 277 305 229 148 247 179 179 183 237 110 132 145 161 186 168 141 167 166 155 153 144 173 173 126 212 251 270 266 124 124 125 114 135
89 34 52 341 21 65 81 148 209 233 263 287 312 246 209 152 222 164 185 172 172 216 131 142 95 59 84 139 146 185 160 152 99 1 79 202 263 329 52 71 119 129 133 152 156
94 74 8 326 84 69 84 264 254 241 250 205 234 214 215 146 149 228 176 176 160 180 77 172 103 334 218 98 44 178 167 80 21 136 183 257 250 216 155 152 146 148 156 156 159
57 60 258 352 81 54 157 243 269 260 219 214 257 292 265 137 172 217 156 21 155 142 261 139 126 163 109 201 169 131 147 86 113 125 148 146 247 196 207 207 179 179 169 162 159
87 52 310 51 61 103 174 217 300 262 259 291 258 240 289 109 139 160 162 111 165 141 160 231 102 113 123 246 290 98 135 136 124 227 260 140 256 330 335 225 193 166 162 169 163
81 245 326 86 123 293 251 245 242 276 291 298 276 34 323 56 118 87 102 17 252 110 157 183 108 101 76 9 12 168 172 122 111 70 193 121 252 356 38 66 93 129 137 155 173
82 33 328 47 184 150 257 317 310 249 290 297 300 307 25 24 30 122 126 71 39 97 75 99 90 156 168 140 130 145 133 143 115 110 168 189 148 165 125 104 107 121 139 159 183
54 96 171 279 332 324 351 350 345 9 309 339 19 355 323 25 97 86 121 105 43 18 61 84 98 85 33 42 93 163 165 156 117 148 130 185 152 185 173 156 166 188 191 197 210
132 143 111 205 269 42 3 341 328 323 320 359 81 31 39 47 34 47 144 70 90 19 71 24 135 86 34 12 68 97 129 134 114 141 96 112 245 206 238 57 275 253 208 223 228
238 24 97 328 353 73 248 213 306 271 334 31 351 62 53 36 23 67 71 74 80 110 103 93 132 80 275 342 65 6 198 150 146 157 144 184 219 108 358 325 292 309 325 200 178